,,,PA_Meas_PMT16A,,PR_Meas_QMR101_102,,RH_Meas_QMH101,,SR_Meas_QMS101,,TA_Meas_QMH101,,GenWind,,GenWind,
date,time,status,PA,status,PR,status,RH,status,SR,status,TA,status,DirAvg,status,SpdAvg,
2011-04-09, 00:00:04,VALID,1002.2,VALID,0,VALID,90.4415,VALID,0,VALID,22.2364,VALID,206,VALID,1.62109,
2011-04-09, 00:01:04,VALID,1002.21,VALID,0,VALID,90.0524,VALID,0,VALID,22.3144,VALID,209,VALID,0.858203,
2011-04-09, 00:02:04,VALID,1002.18,VALID,0,VALID,89.6633,VALID,0,VALID,22.3551,VALID,200,VALID,1.12852,
2011-04-09, 00:03:04,VALID,1002.19,VALID,0,VALID,89.2132,VALID,0,VALID,22.3941,VALID,226,VALID,0.894531,
2011-04-09, 00:04:04,VALID,1002.21,VALID,0,VALID,88.702,VALID,0,VALID,22.4136,VALID,219,VALID,0.777734,
2011-04-09, 00:05:04,VALID,1002.18,VALID,0,VALID,88.7325,VALID,0,VALID,22.4331,VALID,257,VALID,1.33281,
2011-04-09, 00:06:04,VALID,1002.19,VALID,0,VALID,88.969,VALID,0,VALID,22.4136,VALID,270,VALID,0.782422,
2011-04-09, 00:07:04,VALID,1002.23,VALID,0,VALID,89.381,VALID,0.112286,VALID,22.4136,VALID,286,VALID,0.536719,
2011-04-09, 00:08:04,VALID,1002.26,VALID,0,VALID,89.6709,VALID,0.112286,VALID,22.3551,VALID,286,VALID,0.540625,
2011-04-09, 00:09:04,VALID,1002.29,VALID,0,VALID,89.8006,VALID,0,VALID,22.3161,VALID,286,VALID,0.361328,
2011-04-09, 00:10:04,VALID,1002.29,VALID,0,VALID,89.9914,VALID,0,VALID,22.2576,VALID,286,VALID,0.327734,
2011-04-09, 00:11:04,VALID,1002.26,VALID,0,VALID,90.1668,VALID,0,VALID,22.2381,VALID,286,VALID,0.341406,
2011-04-09, 00:12:04,VALID,1002.27,VALID,0.5,VALID,90.3576,VALID,0,VALID,22.199,VALID,286,VALID,0.450391,
2011-04-09, 00:13:04,VALID,1002.23,VALID,0,VALID,90.6017,VALID,0,VALID,22.199,VALID,286,VALID,0.640234,
2011-04-09, 00:14:04,VALID,1002.19,VALID,0,VALID,90.8154,VALID,0,VALID,22.1812,VALID,132,VALID,0.663281,
2011-04-09, 00:15:04,VALID,1002.1,VALID,0,VALID,90.9298,VALID,0,VALID,22.1829,VALID,137,VALID,0.598437,
2011-04-09, 00:16:04,VALID,1002.06,VALID,0,VALID,90.8688,VALID,0,VALID,22.1015,VALID,152,VALID,0.735547,
2011-04-09, 00:17:04,VALID,1001.99,VALID,0,VALID,90.7849,VALID,0,VALID,22.0837,VALID,157,VALID,0.876172,
2011-04-09, 00:18:04,VALID,1001.96,VALID,0,VALID,90.6933,VALID,0,VALID,22.0837,VALID,170,VALID,0.923047,
2011-04-09, 00:19:04,VALID,1001.92,VALID,0,VALID,90.5254,VALID,0,VALID,22.0447,VALID,176,VALID,0.689844,
2011-04-09, 00:20:04,VALID,1001.9,VALID,0,VALID,90.6246,VALID,0,VALID,22.1227,VALID,185,VALID,0.953516,
2011-04-09, 00:21:04,VALID,1001.86,VALID,0,VALID,90.8077,VALID,0,VALID,22.1617,VALID,185,VALID,0.719531,
2011-04-09, 00:22:04,VALID,1001.84,VALID,0,VALID,90.8306,VALID,0,VALID,22.1422,VALID,180,VALID,1.06562,
2011-04-09, 00:23:04,VALID,1001.83,VALID,0,VALID,90.5331,VALID,0,VALID,22.0642,VALID,182,VALID,1.22695,
2011-04-09, 00:24:04,VALID,1001.83,VALID,0,VALID,89.9303,VALID,0,VALID,22.0447,VALID,181,VALID,0.896094,
2011-04-09, 00:25:04,VALID,1001.84,VALID,0,VALID,89.8311,VALID,0,VALID,22.0837,VALID,178,VALID,1.03906,
2011-04-09, 00:26:05,VALID,1001.85,VALID,0,VALID,89.9532,VALID,0,VALID,22.1032,VALID,163,VALID,0.881641,
2011-04-09, 00:27:05,VALID,1001.86,VALID,0,VALID,90.0677,VALID,0,VALID,22.1227,VALID,139,VALID,1.27383,
2011-04-09, 00:28:05,VALID,1001.9,VALID,0,VALID,90.2966,VALID,0,VALID,22.121,VALID,133,VALID,1.36797,
2011-04-09, 00:29:04,VALID,1001.93,VALID,0,VALID,90.3347,VALID,0,VALID,22.1422,VALID,128,VALID,1.37266,
2011-04-09, 00:30:05,VALID,1001.96,VALID,0,VALID,90.4415,VALID,0,VALID,22.1617,VALID,128,VALID,0.783594,
2011-04-09, 00:31:05,VALID,1001.94,VALID,0,VALID,90.6323,VALID,0,VALID,22.1422,VALID,121,VALID,0.641406,
2011-04-09, 00:32:05,VALID,1002,VALID,0,VALID,90.7238,VALID,0,VALID,22.1617,VALID,111,VALID,0.778906,
2011-04-09, 00:33:05,VALID,1001.99,VALID,0,VALID,90.8383,VALID,0,VALID,22.1405,VALID,102,VALID,0.810938,
2011-04-09, 00:34:05,VALID,1001.95,VALID,0,VALID,90.9603,VALID,0,VALID,22.1617,VALID,99,VALID,0.691016,
2011-04-09, 00:35:05,VALID,1001.92,VALID,0,VALID,91.1053,VALID,0,VALID,22.1617,VALID,99,VALID,0.557422,
2011-04-09, 00:36:05,VALID,1001.91,VALID,0,VALID,91.1816,VALID,0,VALID,22.1812,VALID,107,VALID,0.534766,
2011-04-09, 00:37:05,VALID,1001.83,VALID,0,VALID,91.2731,VALID,0,VALID,22.1812,VALID,107,VALID,0.0289063,
2011-04-09, 00:38:05,VALID,1001.79,VALID,0,VALID,91.3113,VALID,0,VALID,22.1812,VALID,107,VALID,0,
2011-04-09, 00:39:05,VALID,1001.74,VALID,0,VALID,91.3952,VALID,0,VALID,22.1812,VALID,107,VALID,0,
2011-04-09, 00:40:05,VALID,1001.73,VALID,0,VALID,91.441,VALID,0,VALID,22.1812,VALID,107,VALID,0,
2011-04-09, 00:41:05,VALID,1001.72,VALID,0,VALID,91.4486,VALID,0,VALID,22.16,VALID,43,VALID,0.675391,
2011-04-09, 00:42:05,VALID,1001.74,VALID,0.5,VALID,91.5097,VALID,0,VALID,22.1812,VALID,42,VALID,0.645703,
2011-04-09, 00:43:05,VALID,1001.67,VALID,0,VALID,91.5936,VALID,0,VALID,22.1617,VALID,21,VALID,0.857422,
2011-04-09, 00:44:05,VALID,1001.67,VALID,0,VALID,91.6241,VALID,0,VALID,22.1617,VALID,12,VALID,0.789063,
2011-04-09, 00:45:05,VALID,1001.63,VALID,0,VALID,91.6394,VALID,0,VALID,22.1617,VALID,346,VALID,0.4125,
2011-04-09, 00:46:05,VALID,1001.63,VALID,0,VALID,91.6699,VALID,0,VALID,22.1422,VALID,346,VALID,0.189063,
2011-04-09, 00:47:05,VALID,1001.61,VALID,0,VALID,91.708,VALID,0,VALID,22.1422,VALID,346,VALID,0.419531,
2011-04-09, 00:48:05,VALID,1001.6,VALID,0,VALID,91.7385,VALID,0,VALID,22.1617,VALID,346,VALID,0.472656,
2011-04-09, 00:49:05,VALID,1001.63,VALID,0,VALID,91.7843,VALID,0,VALID,22.1422,VALID,346,VALID,0.491797,
2011-04-09, 00:50:05,VALID,1001.66,VALID,0,VALID,91.8072,VALID,0,VALID,22.1422,VALID,346,VALID,0.313281,
2011-04-09, 00:51:05,VALID,1001.67,VALID,0,VALID,91.853,VALID,0,VALID,22.1422,VALID,346,VALID,0.4375,
2011-04-09, 00:52:05,VALID,1001.61,VALID,0,VALID,91.8377,VALID,0,VALID,22.1227,VALID,346,VALID,0.312109,
2011-04-09, 00:53:05,VALID,1001.56,VALID,0,VALID,91.8759,VALID,0,VALID,22.1422,VALID,346,VALID,0.494922,
2011-04-09, 00:54:05,VALID,1001.53,VALID,0,VALID,91.9293,VALID,0,VALID,22.1617,VALID,282,VALID,0.617578,
2011-04-09, 00:55:05,VALID,1001.49,VALID,0,VALID,91.9598,VALID,0,VALID,22.1812,VALID,282,VALID,0.492969,
2011-04-09, 00:56:05,VALID,1001.47,VALID,0,VALID,91.9674,VALID,0,VALID,22.2007,VALID,282,VALID,0.44375,
2011-04-09, 00:57:05,VALID,1001.47,VALID,0,VALID,91.9827,VALID,0,VALID,22.199,VALID,282,VALID,0.245312,
2011-04-09, 00:58:05,VALID,1001.45,VALID,0,VALID,92.0056,VALID,0,VALID,22.2202,VALID,282,VALID,0.590234,
2011-04-09, 00:59:05,VALID,1001.48,VALID,0,VALID,91.998,VALID,0,VALID,22.2397,VALID,232,VALID,0.783984,
2011-04-09, 01:00:05,VALID,1001.49,VALID,0,VALID,91.9903,VALID,0,VALID,22.2397,VALID,232,VALID,0.29375,
2011-04-09, 01:01:05,VALID,1001.5,VALID,0,VALID,91.9827,VALID,0,VALID,22.2397,VALID,232,VALID,0,
2011-04-09, 01:02:05,VALID,1001.48,VALID,0,VALID,92.0132,VALID,0,VALID,22.2592,VALID,232,VALID,0,
2011-04-09, 01:03:05,VALID,1001.44,VALID,0,VALID,91.998,VALID,0,VALID,22.2381,VALID,232,VALID,0,
2011-04-09, 01:04:05,VALID,1001.45,VALID,0,VALID,92.0437,VALID,0,VALID,22.2771,VALID,232,VALID,0.009375,
2011-04-09, 01:05:05,VALID,1001.43,VALID,0,VALID,92.0666,VALID,0,VALID,22.3161,VALID,234,VALID,0.795703,
2011-04-09, 01:06:05,VALID,1001.41,VALID,0,VALID,92.0666,VALID,0,VALID,22.3568,VALID,238,VALID,1.06406,
2011-04-09, 01:07:05,VALID,1001.41,VALID,0,VALID,92.0666,VALID,0,VALID,22.3958,VALID,244,VALID,1.20039,
2011-04-09, 01:08:05,VALID,1001.37,VALID,0,VALID,92.0819,VALID,0,VALID,22.3941,VALID,253,VALID,1.03984,
2011-04-09, 01:09:05,VALID,1001.39,VALID,0,VALID,92.0666,VALID,0,VALID,22.4153,VALID,272,VALID,1.03359,
2011-04-09, 01:10:05,VALID,1001.39,VALID,0,VALID,91.998,VALID,0,VALID,22.3746,VALID,257,VALID,0.840625,
2011-04-09, 01:11:05,VALID,1001.35,VALID,0,VALID,91.9903,VALID,0,VALID,22.3763,VALID,270,VALID,0.505078,
2011-04-09, 01:12:05,VALID,1001.36,VALID,0,VALID,91.9522,VALID,0,VALID,22.3568,VALID,243,VALID,0.671484,
2011-04-09, 01:13:05,VALID,1001.34,VALID,0,VALID,91.9293,VALID,0,VALID,22.3373,VALID,243,VALID,0.642578,
2011-04-09, 01:14:05,VALID,1001.33,VALID,0,VALID,91.9064,VALID,0,VALID,22.2983,VALID,221,VALID,0.65,
2011-04-09, 01:15:05,VALID,1001.32,VALID,0,VALID,91.8988,VALID,0,VALID,22.2771,VALID,221,VALID,0.646875,
2011-04-09, 01:16:05,VALID,1001.33,VALID,0,VALID,91.8454,VALID,0,VALID,22.2576,VALID,226,VALID,0.7875,
2011-04-09, 01:17:05,VALID,1001.33,VALID,0,VALID,91.792,VALID,0,VALID,22.2771,VALID,232,VALID,0.482812,
2011-04-09, 01:18:05,VALID,1001.34,VALID,0,VALID,91.7691,VALID,0,VALID,22.3178,VALID,232,VALID,0.342578,
2011-04-09, 01:19:05,VALID,1001.34,VALID,0,VALID,91.7309,VALID,0,VALID,22.2771,VALID,232,VALID,0.0257812,
2011-04-09, 01:20:05,VALID,1001.37,VALID,0,VALID,91.7233,VALID,0,VALID,22.2983,VALID,165,VALID,0.608203,
2011-04-09, 01:21:05,VALID,1001.37,VALID,0,VALID,91.7309,VALID,0,VALID,22.2966,VALID,104,VALID,1.17227,
2011-04-09, 01:22:05,VALID,1001.4,VALID,0,VALID,91.7767,VALID,0,VALID,22.3763,VALID,95,VALID,1.58945,
2011-04-09, 01:23:05,VALID,1001.4,VALID,0,VALID,91.7767,VALID,0,VALID,22.3958,VALID,94,VALID,1.53164,
2011-04-09, 01:24:05,VALID,1001.35,VALID,0,VALID,91.8835,VALID,0,VALID,22.4543,VALID,91,VALID,1.0207,
2011-04-09, 01:25:05,VALID,1001.36,VALID,0,VALID,91.8911,VALID,0,VALID,22.4526,VALID,87,VALID,1.07187,
2011-04-09, 01:26:05,VALID,1001.34,VALID,0,VALID,91.9293,VALID,0,VALID,22.4526,VALID,87,VALID,0.787109,
2011-04-09, 01:27:05,VALID,1001.34,VALID,0,VALID,91.9293,VALID,0,VALID,22.4543,VALID,88,VALID,0.563281,
2011-04-09, 01:28:05,VALID,1001.3,VALID,0,VALID,91.9293,VALID,0,VALID,22.4543,VALID,87,VALID,0.129688,
2011-04-09, 01:29:05,VALID,1001.28,VALID,0,VALID,91.9522,VALID,0,VALID,22.4543,VALID,87,VALID,0.0933594,
2011-04-09, 01:30:05,VALID,1001.26,VALID,0,VALID,91.9674,VALID,0,VALID,22.4331,VALID,87,VALID,0.257813,
2011-04-09, 01:31:05,VALID,1001.25,VALID,0,VALID,92.0132,VALID,0,VALID,22.4738,VALID,79,VALID,0.7625,
2011-04-09, 01:32:05,VALID,1001.23,VALID,0,VALID,92.0971,VALID,0,VALID,22.4933,VALID,79,VALID,0.860547,
2011-04-09, 01:33:05,VALID,1001.2,VALID,0,VALID,92.1429,VALID,0,VALID,22.5128,VALID,84,VALID,0.883594,
2011-04-09, 01:34:05,VALID,1001.19,VALID,0,VALID,92.2192,VALID,0,VALID,22.5519,VALID,90,VALID,0.937109,
2011-04-09, 01:35:05,VALID,1001.14,VALID,0,VALID,92.2345,VALID,0,VALID,22.5519,VALID,99,VALID,0.860937,
2011-04-09, 01:36:05,VALID,1001.13,VALID,0,VALID,92.2726,VALID,0,VALID,22.5714,VALID,88,VALID,0.669922,
2011-04-09, 01:37:05,VALID,1001.1,VALID,0,VALID,92.2955,VALID,0,VALID,22.5714,VALID,93,VALID,0.797266,
2011-04-09, 01:38:05,VALID,1001.07,VALID,0,VALID,92.3184,VALID,0,VALID,22.5519,VALID,95,VALID,0.746484,
2011-04-09, 01:39:05,VALID,1001.06,VALID,0,VALID,92.3413,VALID,0,VALID,22.5519,VALID,107,VALID,0.633203,
2011-04-09, 01:40:05,VALID,1001.04,VALID,0,VALID,92.3566,VALID,0,VALID,22.5714,VALID,119,VALID,0.701172,
2011-04-09, 01:41:05,VALID,1001.02,VALID,0,VALID,92.41,VALID,0,VALID,22.5714,VALID,113,VALID,0.851563,
2011-04-09, 01:42:05,VALID,1001.01,VALID,0,VALID,92.4481,VALID,0,VALID,22.5696,VALID,109,VALID,1.04258,
2011-04-09, 01:43:05,VALID,1001.03,VALID,0,VALID,92.4481,VALID,0,VALID,22.5909,VALID,104,VALID,0.992188,
2011-04-09, 01:44:05,VALID,1001.02,VALID,0,VALID,92.4786,VALID,0,VALID,22.5892,VALID,106,VALID,1.44883,
2011-04-09, 01:45:05,VALID,1001.02,VALID,0,VALID,92.4863,VALID,0,VALID,22.6299,VALID,117,VALID,1.20625,
2011-04-09, 01:46:05,VALID,1001,VALID,0,VALID,92.5091,VALID,0,VALID,22.6299,VALID,126,VALID,1.53437,
2011-04-09, 01:47:05,VALID,1001.02,VALID,0,VALID,92.532,VALID,0,VALID,22.6299,VALID,117,VALID,1.62383,
2011-04-09, 01:48:05,VALID,1000.98,VALID,0,VALID,92.532,VALID,0,VALID,22.6477,VALID,117,VALID,1.59375,
2011-04-09, 01:49:05,VALID,1000.99,VALID,0,VALID,92.532,VALID,0,VALID,22.6477,VALID,115,VALID,2.02578,
2011-04-09, 01:50:05,VALID,1000.99,VALID,0,VALID,92.5549,VALID,0,VALID,22.6867,VALID,117,VALID,1.75977,
2011-04-09, 01:51:05,VALID,1000.96,VALID,0,VALID,92.532,VALID,0,VALID,22.7274,VALID,120,VALID,1.82227,
2011-04-09, 01:52:05,VALID,1000.97,VALID,0,VALID,92.5397,VALID,0,VALID,22.7274,VALID,124,VALID,1.76016,
2011-04-09, 01:53:05,VALID,1000.92,VALID,0,VALID,92.5015,VALID,0,VALID,22.7469,VALID,128,VALID,1.64023,
2011-04-09, 01:54:05,VALID,1000.88,VALID,0,VALID,92.471,VALID,0,VALID,22.7664,VALID,134,VALID,1.42734,
2011-04-09, 01:55:05,VALID,1000.85,VALID,0,VALID,92.4481,VALID,0,VALID,22.786,VALID,146,VALID,1.50703,
2011-04-09, 01:56:05,VALID,1000.78,VALID,0,VALID,92.41,VALID,0,VALID,22.786,VALID,148,VALID,1.04453,
2011-04-09, 01:57:05,VALID,1000.75,VALID,0,VALID,92.3489,VALID,0,VALID,22.8055,VALID,149,VALID,1.30664,
2011-04-09, 01:58:05,VALID,1000.71,VALID,0,VALID,92.326,VALID,0,VALID,22.825,VALID,160,VALID,1.34453,
2011-04-09, 01:59:05,VALID,1000.67,VALID,0,VALID,92.3184,VALID,0,VALID,22.8427,VALID,168,VALID,1.06797,
2011-04-09, 02:00:05,VALID,1000.69,VALID,0,VALID,92.2345,VALID,0,VALID,22.8835,VALID,162,VALID,0.871484,
2011-04-09, 02:01:05,VALID,1000.67,VALID,0,VALID,92.2345,VALID,0,VALID,22.9225,VALID,163,VALID,1.05352,
2011-04-09, 02:02:05,VALID,1000.67,VALID,0,VALID,92.1887,VALID,0,VALID,22.9225,VALID,155,VALID,1.13008,
2011-04-09, 02:03:05,VALID,1000.66,VALID,0,VALID,92.1124,VALID,0,VALID,22.9013,VALID,169,VALID,1.05,
2011-04-09, 02:04:05,VALID,1000.64,VALID,0,VALID,92.0056,VALID,0,VALID,22.9225,VALID,165,VALID,0.551172,
2011-04-09, 02:05:05,VALID,1000.63,VALID,0,VALID,91.9445,VALID,0,VALID,22.942,VALID,165,VALID,0.285156,
2011-04-09, 02:06:05,VALID,1000.61,VALID,0,VALID,91.8835,VALID,0,VALID,22.9615,VALID,164,VALID,0.114063,
2011-04-09, 02:07:05,VALID,1000.63,VALID,0,VALID,91.8606,VALID,0,VALID,22.942,VALID,118,VALID,0.508594,
2011-04-09, 02:08:05,VALID,1000.6,VALID,0,VALID,91.8072,VALID,0,VALID,22.942,VALID,118,VALID,0.922656,
2011-04-09, 02:09:05,VALID,1000.54,VALID,0,VALID,91.7843,VALID,0,VALID,22.942,VALID,118,VALID,0.717578,
2011-04-09, 02:10:05,VALID,1000.55,VALID,0,VALID,91.7767,VALID,0,VALID,22.942,VALID,118,VALID,0.773438,
2011-04-09, 02:11:05,VALID,1000.52,VALID,0,VALID,91.6928,VALID,0,VALID,22.942,VALID,118,VALID,0.888281,
2011-04-09, 02:12:05,VALID,1000.52,VALID,0,VALID,91.6317,VALID,0,VALID,22.9828,VALID,118,VALID,0.596484,
2011-04-09, 02:13:05,VALID,1000.52,VALID,0,VALID,91.6012,VALID,0,VALID,22.9615,VALID,118,VALID,0.602344,
2011-04-09, 02:14:05,VALID,1000.47,VALID,0,VALID,91.5783,VALID,0,VALID,22.9811,VALID,118,VALID,0.467187,
2011-04-09, 02:15:05,VALID,1000.43,VALID,0,VALID,91.5554,VALID,0,VALID,22.9811,VALID,118,VALID,0.475781,
2011-04-09, 02:16:05,VALID,1000.41,VALID,0,VALID,91.5631,VALID,0,VALID,23.0006,VALID,118,VALID,0,
2011-04-09, 02:17:05,VALID,1000.4,VALID,0,VALID,91.5554,VALID,0,VALID,22.9811,VALID,118,VALID,0,
2011-04-09, 02:18:05,VALID,1000.37,VALID,0,VALID,91.5478,VALID,0,VALID,22.9811,VALID,118,VALID,0,
2011-04-09, 02:19:05,VALID,1000.37,VALID,0,VALID,91.5554,VALID,0,VALID,23.0006,VALID,118,VALID,0,
2011-04-09, 02:20:05,VALID,1000.31,VALID,0,VALID,91.5707,VALID,0,VALID,22.9793,VALID,118,VALID,0,
2011-04-09, 02:21:05,VALID,1000.33,VALID,0,VALID,91.5478,VALID,0,VALID,22.9615,VALID,118,VALID,0,
2011-04-09, 02:22:05,VALID,1000.32,VALID,0,VALID,91.5326,VALID,0,VALID,22.9615,VALID,135,VALID,0,
2011-04-09, 02:23:05,VALID,1000.27,VALID,0,VALID,91.502,VALID,0,VALID,22.9615,VALID,136,VALID,0,
2011-04-09, 02:24:05,VALID,1000.3,VALID,0,VALID,91.4868,VALID,0,VALID,22.9615,VALID,136,VALID,0,
2011-04-09, 02:25:05,VALID,1000.27,VALID,0,VALID,91.441,VALID,0,VALID,22.9811,VALID,136,VALID,0,
2011-04-09, 02:26:05,VALID,1000.26,VALID,0,VALID,91.3876,VALID,0,VALID,22.9598,VALID,136,VALID,0,
2011-04-09, 02:27:05,VALID,1000.23,VALID,0,VALID,91.2808,VALID,0,VALID,23.0006,VALID,136,VALID,0,
2011-04-09, 02:28:05,VALID,1000.21,VALID,0,VALID,91.174,VALID,0,VALID,23.0396,VALID,136,VALID,0,
2011-04-09, 02:29:05,VALID,1000.21,VALID,0,VALID,91.0748,VALID,0,VALID,23.0396,VALID,136,VALID,0,
2011-04-09, 02:30:05,VALID,1000.17,VALID,0,VALID,90.9909,VALID,0,VALID,23.0591,VALID,136,VALID,0,
2011-04-09, 02:31:05,VALID,1000.2,VALID,0,VALID,90.9756,VALID,0,VALID,23.0591,VALID,136,VALID,0,
2011-04-09, 02:32:05,VALID,1000.17,VALID,0,VALID,91.0366,VALID,0,VALID,23.0591,VALID,136,VALID,0,
2011-04-09, 02:33:05,VALID,1000.16,VALID,0,VALID,91.0366,VALID,0,VALID,23.0591,VALID,136,VALID,0,
2011-04-09, 02:34:05,VALID,1000.17,VALID,0,VALID,91.029,VALID,0,VALID,23.0786,VALID,136,VALID,0,
2011-04-09, 02:35:05,VALID,1000.13,VALID,0,VALID,91.0595,VALID,0,VALID,23.0786,VALID,136,VALID,0,
2011-04-09, 02:36:05,VALID,1000.16,VALID,0,VALID,91.0595,VALID,0,VALID,23.0786,VALID,136,VALID,0,
2011-04-09, 02:37:05,VALID,1000.18,VALID,0,VALID,91.029,VALID,0,VALID,23.0591,VALID,136,VALID,0,
2011-04-09, 02:38:05,VALID,1000.16,VALID,0,VALID,91.0137,VALID,0,VALID,23.0396,VALID,136,VALID,0,
2011-04-09, 02:39:05,VALID,1000.14,VALID,0,VALID,91.0214,VALID,0,VALID,23.0396,VALID,136,VALID,0,
2011-04-09, 02:40:05,VALID,1000.13,VALID,0,VALID,91.09,VALID,0,VALID,23.0591,VALID,136,VALID,0,
2011-04-09, 02:41:05,VALID,1000.15,VALID,0,VALID,91.2197,VALID,0,VALID,23.0591,VALID,136,VALID,0,
2011-04-09, 02:42:05,VALID,1000.11,VALID,0,VALID,91.3189,VALID,0,VALID,23.0396,VALID,136,VALID,0,
2011-04-09, 02:43:05,VALID,1000.11,VALID,0,VALID,91.4334,VALID,0,VALID,23.0591,VALID,136,VALID,0,
2011-04-09, 02:44:05,VALID,1000.11,VALID,0,VALID,91.502,VALID,0,VALID,23.0378,VALID,136,VALID,0,
2011-04-09, 02:45:05,VALID,1000.07,VALID,0,VALID,91.5936,VALID,0,VALID,23.0183,VALID,136,VALID,0,
2011-04-09, 02:46:05,VALID,1000.1,VALID,0,VALID,91.6317,VALID,0,VALID,23.0183,VALID,136,VALID,0,
2011-04-09, 02:47:05,VALID,1000.11,VALID,0,VALID,91.6699,VALID,0,VALID,22.9988,VALID,136,VALID,0,
2011-04-09, 02:48:05,VALID,1000.09,VALID,0,VALID,91.708,VALID,0,VALID,22.9581,VALID,136,VALID,0,
2011-04-09, 02:49:05,VALID,1000.12,VALID,0,VALID,91.7538,VALID,0,VALID,22.9581,VALID,136,VALID,0,
2011-04-09, 02:50:05,VALID,1000.1,VALID,0,VALID,91.7767,VALID,0.112286,VALID,22.9581,VALID,139,VALID,0,
2011-04-09, 02:51:05,VALID,1000.08,VALID,0,VALID,91.8377,VALID,0,VALID,22.9988,VALID,253,VALID,0,
2011-04-09, 02:52:05,VALID,1000.1,VALID,0,VALID,91.8835,VALID,0,VALID,22.9971,VALID,254,VALID,0,
2011-04-09, 02:53:05,VALID,1000.08,VALID,0,VALID,91.9217,VALID,0,VALID,22.9988,VALID,254,VALID,0,
2011-04-09, 02:54:05,VALID,1000.08,VALID,0,VALID,91.9293,VALID,0,VALID,22.9793,VALID,252,VALID,0,
2011-04-09, 02:55:05,VALID,1000.13,VALID,0,VALID,91.9064,VALID,0.112286,VALID,22.9581,VALID,242,VALID,0.195313,
2011-04-09, 02:56:05,VALID,1000.09,VALID,0,VALID,91.914,VALID,0,VALID,22.9598,VALID,234,VALID,0.7375,
2011-04-09, 02:57:05,VALID,1000.09,VALID,0,VALID,91.8835,VALID,0,VALID,22.9403,VALID,241,VALID,1.20156,
2011-04-09, 02:58:05,VALID,1000.08,VALID,0,VALID,91.8683,VALID,0,VALID,22.919,VALID,241,VALID,1.18711,
2011-04-09, 02:59:05,VALID,1000.1,VALID,0,VALID,91.8377,VALID,0,VALID,22.9208,VALID,228,VALID,0.946875,
2011-04-09, 03:00:05,VALID,1000.1,VALID,0,VALID,91.8225,VALID,0,VALID,22.942,VALID,227,VALID,0.958984,
2011-04-09, 03:01:05,VALID,1000.09,VALID,0,VALID,91.8377,VALID,0,VALID,22.9615,VALID,212,VALID,0.800391,
2011-04-09, 03:02:05,VALID,1000.09,VALID,0,VALID,91.8301,VALID,0,VALID,22.9811,VALID,215,VALID,0.749219,
2011-04-09, 03:03:05,VALID,1000.07,VALID,0,VALID,91.8454,VALID,0,VALID,22.9811,VALID,215,VALID,0.801953,
2011-04-09, 03:04:05,VALID,1000.07,VALID,0,VALID,91.8454,VALID,0,VALID,23.0006,VALID,215,VALID,0.709375,
2011-04-09, 03:05:05,VALID,1000.07,VALID,0,VALID,91.8606,VALID,0,VALID,23.0183,VALID,215,VALID,0.893359,
2011-04-09, 03:06:05,VALID,1000.05,VALID,0,VALID,91.8301,VALID,0,VALID,23.0591,VALID,203,VALID,0.999219,
2011-04-09, 03:07:05,VALID,1000.05,VALID,0,VALID,91.7538,VALID,0,VALID,23.0981,VALID,203,VALID,0.691406,
2011-04-09, 03:08:05,VALID,1000.09,VALID,0,VALID,91.647,VALID,0,VALID,23.1371,VALID,186,VALID,0.935938,
2011-04-09, 03:09:05,VALID,1000.08,VALID,0,VALID,91.5097,VALID,0,VALID,23.1371,VALID,186,VALID,0.732031,
2011-04-09, 03:10:05,VALID,1000.09,VALID,0,VALID,91.38,VALID,0,VALID,23.1566,VALID,186,VALID,0.742578,
2011-04-09, 03:11:05,VALID,1000.12,VALID,0,VALID,91.2274,VALID,0,VALID,23.1957,VALID,187,VALID,0.599219,
2011-04-09, 03:12:05,VALID,1000.09,VALID,0,VALID,91.0519,VALID,0,VALID,23.1957,VALID,187,VALID,0.427734,
2011-04-09, 03:13:05,VALID,1000.09,VALID,0,VALID,90.884,VALID,0,VALID,23.1744,VALID,189,VALID,0.944141,
2011-04-09, 03:14:05,VALID,1000.09,VALID,0,VALID,90.6323,VALID,0,VALID,23.2152,VALID,189,VALID,1.11055,
2011-04-09, 03:15:04,VALID,1000.11,VALID,0,VALID,90.2126,VALID,0,VALID,23.2737,VALID,189,VALID,1.05625,
2011-04-09, 03:16:04,VALID,1000.12,VALID,0,VALID,90.0677,VALID,0,VALID,23.3323,VALID,189,VALID,0.983203,
2011-04-09, 03:17:04,VALID,1000.07,VALID,0,VALID,89.8464,VALID,0,VALID,23.3518,VALID,189,VALID,0.8125,
2011-04-09, 03:18:04,VALID,1000.06,VALID,0,VALID,89.7396,VALID,0,VALID,23.3713,VALID,189,VALID,0.754687,
2011-04-09, 03:19:04,VALID,1000.05,VALID,0,VALID,89.7701,VALID,0,VALID,23.3908,VALID,189,VALID,0.790625,
2011-04-09, 03:20:04,VALID,1000.04,VALID,0,VALID,89.793,VALID,0,VALID,23.4103,VALID,189,VALID,0.798437,
2011-04-09, 03:21:04,VALID,1000.04,VALID,0,VALID,89.8235,VALID,0,VALID,23.4493,VALID,189,VALID,0.665625,
2011-04-09, 03:22:04,VALID,1000.01,VALID,0,VALID,89.8693,VALID,0,VALID,23.4688,VALID,189,VALID,0.480078,
2011-04-09, 03:23:04,VALID,1000.03,VALID,0,VALID,89.9151,VALID,0,VALID,23.4493,VALID,189,VALID,0.43125,
2011-04-09, 03:24:04,VALID,1000.07,VALID,0,VALID,89.9761,VALID,0,VALID,23.4493,VALID,189,VALID,0,
2011-04-09, 03:25:04,VALID,1000.08,VALID,0,VALID,89.9303,VALID,0,VALID,23.4103,VALID,189,VALID,0,
2011-04-09, 03:26:04,VALID,1000.1,VALID,0,VALID,89.9227,VALID,0,VALID,23.3305,VALID,189,VALID,0,
2011-04-09, 03:27:04,VALID,1000.13,VALID,0,VALID,90.0295,VALID,0,VALID,23.2932,VALID,189,VALID,0,
2011-04-09, 03:28:04,VALID,1000.15,VALID,0,VALID,90.205,VALID,0,VALID,23.2347,VALID,189,VALID,0,
2011-04-09, 03:29:04,VALID,1000.16,VALID,0,VALID,90.4339,VALID,0,VALID,23.2347,VALID,189,VALID,0,
2011-04-09, 03:30:04,VALID,1000.18,VALID,0,VALID,90.5941,VALID,0,VALID,23.1371,VALID,189,VALID,0,
2011-04-09, 03:31:04,VALID,1000.17,VALID,0,VALID,90.762,VALID,0,VALID,23.1176,VALID,189,VALID,0,
2011-04-09, 03:32:04,VALID,1000.18,VALID,0,VALID,90.9298,VALID,0,VALID,23.0786,VALID,189,VALID,0,
2011-04-09, 03:33:04,VALID,1000.19,VALID,0,VALID,91.0671,VALID,0,VALID,23.0591,VALID,189,VALID,0,
2011-04-09, 03:34:04,VALID,1000.22,VALID,0,VALID,91.1968,VALID,0,VALID,23.0591,VALID,189,VALID,0,
2011-04-09, 03:35:04,VALID,1000.23,VALID,0,VALID,91.3494,VALID,0,VALID,23.0396,VALID,189,VALID,0,
2011-04-09, 03:36:04,VALID,1000.26,VALID,0,VALID,91.4257,VALID,0,VALID,23.0201,VALID,189,VALID,0.282031,
2011-04-09, 03:37:04,VALID,1000.29,VALID,0,VALID,91.5402,VALID,0,VALID,23.0201,VALID,189,VALID,0.530078,
2011-04-09, 03:38:04,VALID,1000.3,VALID,0,VALID,91.6088,VALID,0,VALID,23.0396,VALID,189,VALID,0.486719,
2011-04-09, 03:39:04,VALID,1000.34,VALID,0,VALID,91.6928,VALID,0,VALID,23.0591,VALID,189,VALID,0.448047,
2011-04-09, 03:40:04,VALID,1000.34,VALID,0,VALID,91.7767,VALID,0,VALID,23.0573,VALID,158,VALID,0.631641,
2011-04-09, 03:41:04,VALID,1000.34,VALID,0,VALID,91.8911,VALID,0,VALID,23.0573,VALID,116,VALID,0.6375,
2011-04-09, 03:42:04,VALID,1000.33,VALID,0,VALID,91.9369,VALID,0,VALID,23.0981,VALID,116,VALID,0.588281,
2011-04-09, 03:43:04,VALID,1000.34,VALID,0,VALID,91.9598,VALID,0,VALID,23.0769,VALID,116,VALID,0.551562,
2011-04-09, 03:44:04,VALID,1000.31,VALID,0,VALID,91.9903,VALID,0,VALID,23.0769,VALID,103,VALID,0.616797,
2011-04-09, 03:45:04,VALID,1000.33,VALID,0,VALID,92.0361,VALID,0,VALID,23.0786,VALID,103,VALID,0.582812,
2011-04-09, 03:46:04,VALID,1000.3,VALID,0,VALID,92.0819,VALID,0,VALID,23.0786,VALID,103,VALID,0.687891,
2011-04-09, 03:47:04,VALID,1000.31,VALID,0,VALID,92.1048,VALID,0,VALID,23.0786,VALID,103,VALID,0.775781,
2011-04-09, 03:48:04,VALID,1000.28,VALID,0,VALID,92.1277,VALID,0,VALID,23.0786,VALID,103,VALID,0.64375,